15min,AgWx,beryljct,423,27FEB2020:00:00:00,24.7,12.83,26.4,25.8,25.3,25.8,24.9,89,90,87,0.426,22.4,23.2,21.8,1.666,1.2,178,24,2.3,-0.00014,-0.00019,33.9,34.6,22,0,.,.,9.37,0.00,0.00
15min,AgWx,beryljct,423,27FEB2020:00:15:00,24.6,12.83,24.9,24.6,25.0,25.8,24.3,88,90,87,0.397,22.1,23.2,21.1,1.951,2.0,195,3.2,2.4,-0.00011,-0.00014,33.9,34.6,22,0,.,.,9.37,0.00,0.00
15min,AgWx,beryljct,423,27FEB2020:00:30:00,24.5,12.81,25.3,25.1,24.8,25.2,24.2,88,89,86,0.393,21.6,22.1,20.6,0,0.8,193,0.1,1.9,-0.00016,-0.00022,33.9,34.6,22,0,.,.,9.38,0.00,0.00
15min,AgWx,beryljct,423,27FEB2020:00:45:00,24.0,12.81,23.6,23.2,24.3,25.2,23.1,88,90,86,0.381,21.2,22.0,20.4,0.044,0.0,193,0.0,0.0,-0.00020,-0.00033,33.8,34.6,21,0,.,.,9.38,0.00,0.00
15min,AgWx,beryljct,423,27FEB2020:01:00:00,23.7,12.8,25.0,25.0,24.3,25.3,23.2,86,91,80,0.369,20.7,21.5,19.5,1.929,1.5,260,8.1,2.7,-0.00013,-0.00016,33.8,34.6,22,0,.,.,9.38,0.00,0.00
15min,AgWx,beryljct,423,27FEB2020:01:15:00,23.5,12.79,24.9,24.7,24.6,24.9,24.3,82,84,80,0.373,20.0,20.3,19.7,0,0.7,246,0.1,1.9,-0.00016,-0.00022,33.7,34.6,22,0,.,.,9.38,0.00,0.00
15min,AgWx,beryljct,423,27FEB2020:01:30:00,23.3,12.79,23.0,22.9,23.8,24.7,22.9,84,87,82,0.365,19.6,20.2,19.3,1.82,1.1,211,23,2.2,-0.00014,-0.00018,33.7,34.6,22,0,.,.,9.38,0.00,0.00
15min,AgWx,beryljct,423,27FEB2020:01:45:00,23.0,12.78,23.3,23.2,22.8,23.3,22.4,88,89,87,0.377,19.9,20.5,19.4,2.148,1.0,150,28,2.2,-0.00014,-0.00020,33.7,34.6,21,0,.,.,9.38,0.00,0.00
15min,AgWx,beryljct,423,27FEB2020:02:00:00,22.8,12.77,22.9,22.4,22.3,23.3,22.0,90,90,88,0.367,19.6,20.5,19.0,2.433,2.3,202,12,3.4,-0.00010,-0.00012,33.7,34.6,21,0,.,.,9.38,0.00,0.00
15min,AgWx,beryljct,423,27FEB2020:02:15:00,22.6,12.74,23.0,22.0,22.4,22.8,21.9,87,90,85,0.352,19.1,19.9,18.3,3.354,2.4,174,27,3.7,-0.00009,-0.00011,33.6,34.6,22,0,.,.,9.38,0.00,0.00
15min,AgWx,beryljct,423,27FEB2020:02:30:00,22.4,12.74,22.1,21.7,21.7,22.5,21.4,88,90,86,0.360,18.7,19.4,18.2,2.302,3.0,179,29,3.8,-0.00008,-0.00009,33.6,34.6,22,0,.,.,9.38,0.00,0.00
15min,AgWx,beryljct,423,27FEB2020:02:45:00,22.1,12.74,21.6,21.3,21.4,22.0,20.9,88,90,86,0.349,18.5,19.3,17.5,3.508,3.0,147,33,4.2,-0.00008,-0.00009,33.6,34.6,22,0,.,.,9.38,0.00,0.00
15min,AgWx,beryljct,423,27FEB2020:03:00:00,21.9,12.74,21.8,21.5,21.3,21.5,21.2,89,89,88,0.350,18.5,18.7,18.3,1.754,2.9,171,29,3.9,-0.00008,-0.00009,33.6,34.6,22,0,.,.,9.38,0.00,0.00
15min,AgWx,beryljct,423,27FEB2020:03:15:00,21.7,12.72,21.8,21.4,21.5,21.6,21.2,88,89,87,0.347,18.5,18.8,18.3,2.389,2.5,200,0.9,3.2,-0.00009,-0.00011,33.5,34.6,22,0,.,.,9.38,0.00,0.00
15min,AgWx,beryljct,423,27FEB2020:03:30:00,21.6,12.7,21.8,21.7,21.6,21.7,21.4,87,88,86,0.341,18.2,18.5,18.0,2.083,0.7,193,27,2.5,-0.00015,-0.00022,33.5,34.6,22,0,.,.,9.38,0.00,0.00
15min,AgWx,beryljct,423,27FEB2020:03:45:00,21.3,12.7,20.8,20.7,21.3,21.7,20.7,87,88,85,0.334,17.9,18.3,17.5,2.916,2.2,58,24,3.9,-0.00010,-0.00012,33.5,34.6,21,0,.,.,9.38,0.00,0.00
15min,AgWx,beryljct,423,27FEB2020:04:00:00,21.0,12.7,20.3,20.3,20.7,21.4,20.2,89,90,88,0.331,17.9,18.8,17.3,2.039,1.4,62,30,2.9,-0.00012,-0.00016,33.4,34.6,22,0,.,.,9.38,0.00,0.00
15min,AgWx,beryljct,423,27FEB2020:04:15:00,20.7,12.69,21.4,20.6,20.4,20.7,20.1,89,90,88,0.339,17.7,18.1,17.2,0,2.0,292,9.5,3.2,-0.00010,-0.00013,33.4,34.6,21,0,.,.,9.38,0.00,0.00
15min,AgWx,beryljct,423,27FEB2020:04:30:00,20.4,12.69,20.5,19.5,19.8,20.8,19.1,89,90,88,0.326,17.1,18.2,16.0,1.25,1.6,29,40,3.9,-0.00011,-0.00015,33.4,34.5,21,0,.,.,9.38,0.00,0.00
15min,AgWx,beryljct,423,27FEB2020:04:45:00,20.2,12.68,19.9,19.8,19.7,20.0,19.4,90,90,89,0.332,17.2,17.6,16.8,4.143,2.7,312,15,4.1,-0.00008,-0.00010,33.4,34.5,21,0,.,.,9.38,0.00,0.00
15min,AgWx,beryljct,423,27FEB2020:05:00:00,20.0,12.67,20.3,20.1,19.9,20.4,19.7,91,91,90,0.338,17.6,18.1,17.3,1.25,3.3,316,5.6,4.4,-0.00007,-0.00008,33.4,34.5,22,0,.,.,9.38,0.00,0.00
15min,AgWx,beryljct,423,27FEB2020:05:15:00,19.9,12.67,22.6,21.7,20.7,21.7,20.1,91,91,90,0.360,18.5,19.3,17.7,2.389,1.5,300,15,2.4,-0.00012,-0.00016,33.3,34.5,21,0,.,.,9.38,0.00,0.00
15min,AgWx,beryljct,423,27FEB2020:05:30:00,20.0,12.66,21.8,21.1,22.0,23.1,20.6,87,90,85,0.339,18.8,20.2,16.9,0,1.5,278,4.2,3.0,-0.00012,-0.00015,33.3,34.5,21,0,.,.,9.38,0.00,0.00
15min,AgWx,beryljct,423,27FEB2020:05:45:00,19.8,12.65,20.3,20.1,21.0,21.8,20.0,88,89,87,0.330,17.9,18.7,17.0,2.499,0.9,306,13,3.1,-0.00014,-0.00020,33.3,34.5,21,0,.,.,9.38,0.00,0.00
15min,AgWx,beryljct,423,27FEB2020:06:00:00,19.7,12.65,19.1,18.8,20.0,20.8,18.8,89,92,88,0.312,17.3,18.4,15.9,3.398,3.0,324,11,3.7,-0.00008,-0.00009,33.3,34.5,22,0,.,.,9.38,0.00,0.00
15min,AgWx,beryljct,423,27FEB2020:06:15:00,19.5,12.65,20.6,20.1,19.4,20.1,18.8,90,91,89,0.336,17.0,17.7,16.0,3.924,3.3,309,5.5,4.1,-0.00007,-0.00008,33.2,34.5,21,0,.,.,9.38,0.00,0.00
15min,AgWx,beryljct,423,27FEB2020:06:30:00,19.5,12.64,22.7,21.5,20.5,21.5,19.4,90,90,88,0.355,17.8,19.1,16.4,1.885,1.9,268,47,4.1,0.00003,0.00005,33.2,34.5,22,0,.,.,9.38,0.00,0.00
15min,AgWx,beryljct,423,27FEB2020:06:45:00,19.4,12.63,21.7,21.2,21.0,21.6,20.6,87,89,86,0.343,17.9,19.0,17.3,3.113,1.1,315,41,3.5,0.00002,0.00004,33.2,34.5,22,0,.,.,9.38,0.00,0.00
15min,AgWx,beryljct,423,27FEB2020:07:00:00,19.4,12.64,19.2,18.1,19.6,21.3,17.9,87,89,84,0.305,16.3,18.2,14.0,0.943,2.0,37,48,3.8,0.00004,0.00006,33.2,34.5,22,1,.,.,9.38,0.00,0.00
15min,AgWx,beryljct,423,27FEB2020:07:15:00,19.0,12.65,18.9,18.6,18.7,18.9,18.2,89,90,88,0.309,15.9,16.3,15.6,0,0.6,31,20,1.9,0.00003,0.00004,33.2,34.5,21,6,.,.,9.38,0.00,0.00
15min,AgWx,beryljct,423,27FEB2020:07:30:00,18.6,12.77,19.2,18.8,18.6,18.8,18.5,88,89,88,0.311,15.8,15.9,15.7,0.702,0.1,8.7,0.1,0.7,0.00011,0.00012,33.1,34.5,21,32,.,.,9.38,0.00,0.00
15min,AgWx,beryljct,423,27FEB2020:07:45:00,18.9,12.98,20.4,20.1,19.5,20.2,18.8,90,91,88,0.335,16.9,17.8,15.8,0,0.8,252,55,2.9,0.00022,0.00025,33.1,34.5,21,74,.,.,9.38,0.00,0.00
15min,AgWx,beryljct,423,27FEB2020:08:00:00,20.3,13.27,22.6,22.0,21.0,22.1,20.1,90,90,89,0.360,18.4,19.4,17.5,2.039,0.8,127,11,2.4,0.00033,0.00036,33.1,34.5,22,116,.,.,9.38,0.00,0.00
15min,AgWx,beryljct,423,27FEB2020:08:15:00,22.2,13.9,24.3,23.9,23.1,24.0,22.1,89,90,87,0.384,20.2,20.9,19.4,1.6,2.2,87,14,3.2,0.00046,0.00051,33.1,34.5,22,163,.,.,9.38,0.00,0.00
15min,AgWx,beryljct,423,27FEB2020:08:30:00,24.2,14.87,25.3,24.4,24.2,24.5,23.9,86,88,84,0.374,20.7,21.2,20.1,1.03,2.4,125,17,3.5,0.00061,0.00068,33.1,34.5,22,211,.,.,9.38,0.00,0.00
15min,AgWx,beryljct,423,27FEB2020:08:45:00,26.3,14.88,26.2,25.4,25.0,25.4,24.5,84,85,83,0.393,20.9,21.3,20.3,0.986,1.5,137,18,2.6,0.00079,0.00086,33.1,34.5,22,260,.,.,9.38,0.00,0.00
15min,AgWx,beryljct,423,27FEB2020:09:00:00,28.5,14.77,26.6,26.5,26.0,26.5,25.4,84,85,83,0.407,21.8,22.4,21.4,0.965,0.3,94,18,1.3,0.00100,0.00107,33.0,34.5,22,310,.,.,9.38,0.00,0.00
15min,AgWx,beryljct,423,27FEB2020:09:15:00,30.8,14.77,28.1,27.4,26.7,27.4,26.2,82,84,81,0.414,22.0,22.6,21.5,1.469,1.2,357,12,2.3,0.00114,0.00124,33.0,34.4,21,356,.,.,9.38,0.00,0.00
15min,AgWx,beryljct,423,27FEB2020:09:30:00,33.0,14.72,29.9,29.5,28.6,29.7,27.4,81,82,76,0.421,23.4,24.1,22.4,0.811,1.0,31,15,2.2,0.00137,0.00148,33.0,34.4,21,405,.,.,9.38,0.00,0.00
15min,AgWx,beryljct,423,27FEB2020:09:45:00,35.1,14.74,31.1,31.1,30.4,31.1,29.6,73,77,70,0.416,22.8,23.9,22.0,2.368,1.6,19,21,3.1,0.00158,0.00173,33.0,34.4,22,451,.,.,9.38,0.00,0.00
15min,AgWx,beryljct,423,27FEB2020:10:00:00,36.9,14.7,33.7,33.1,32.4,33.3,31.0,68,71,66,0.423,22.9,23.8,22.1,2.696,2.7,14,16,4.8,0.00178,0.00199,33.0,34.4,21,494,.,.,9.38,0.00,0.00
15min,AgWx,beryljct,423,27FEB2020:10:15:00,38.4,14.67,35.8,35.2,34.2,35.2,33.1,66,69,63,0.450,24.1,25.1,23.2,2.083,2.7,4.7,20,4.7,0.00200,0.00224,33.0,34.4,21,534,.,.,9.37,0.00,0.00
15min,AgWx,beryljct,423,27FEB2020:10:30:00,40.0,14.24,36.2,36.1,35.8,36.2,35.3,61,66,58,0.419,23.5,25.2,22.6,2.039,3.0,359,13,5.0,0.00223,0.00251,32.9,34.4,22,572,.,.,9.38,0.00,0.00
15min,AgWx,beryljct,423,27FEB2020:10:45:00,41.4,14.2,37.2,37.1,36.8,37.3,36.1,58,60,55,0.428,23.3,24.4,22.0,3.179,3.2,14,18,5.2,0.00241,0.00273,32.9,34.4,21,607,.,.,9.37,0.00,0.00
15min,AgWx,beryljct,423,27FEB2020:11:00:00,42.7,14.19,37.6,38.1,37.8,38.6,37.1,55,57,52,0.414,23.0,24.3,22.1,4.954,3.3,2.4,14,5.4,0.00259,0.00294,32.9,34.4,22,638,.,.,9.38,0.00,0.00
15min,AgWx,beryljct,423,27FEB2020:11:15:00,43.7,14.17,39.2,38.8,38.7,39.2,38.1,53,55,51,0.416,22.9,24.4,21.9,3.157,3.7,350,19,6.1,0.00274,0.00314,32.9,34.4,21,666,.,.,9.37,0.00,0.00
15min,AgWx,beryljct,423,27FEB2020:11:30:00,44.7,14.14,39.5,40.4,39.5,40.6,38.8,54,57,52,0.472,24.1,26.4,22.8,4.231,4.1,341,21,6.5,0.00286,0.00327,32.9,34.4,22,690,.,.,9.37,0.00,0.00
15min,AgWx,beryljct,423,27FEB2020:11:45:00,45.7,14.15,42.0,41.1,40.6,41.3,40.0,53,56,50,0.445,24.7,26.5,23.7,1.929,3.0,328,19,6.0,0.00304,0.00342,32.9,34.4,21,710,.,.,9.37,0.00,0.00
15min,AgWx,beryljct,423,27FEB2020:12:00:00,47.0,14.12,42.8,42.9,41.8,42.9,41.1,50,52,47,0.476,24.5,26.0,23.1,3.31,3.1,356,31,5.5,0.00319,0.00360,32.9,34.4,22,727,.,.,9.37,0.00,0.00
15min,AgWx,beryljct,423,27FEB2020:12:15:00,48.0,14.11,42.7,43.7,42.8,43.8,42.4,48,51,46,0.468,24.7,26.9,23.0,4.428,4.1,5.6,18,5.9,0.00327,0.00376,32.9,34.4,22,739,.,.,9.36,0.00,0.00
15min,AgWx,beryljct,423,27FEB2020:12:30:00,48.7,14.09,43.5,43.6,43.6,44.2,43.1,46,48,44,0.421,24.1,25.4,23.0,2.258,3.6,4.9,21,5.8,0.00338,0.00387,32.9,34.4,22,748,.,.,9.36,0.00,0.00
15min,AgWx,beryljct,423,27FEB2020:12:45:00,49.6,14.08,44.6,45.1,44.6,45.2,43.6,45,48,40,0.458,24.5,26.2,21.6,5.305,3.4,4.7,24,6.4,0.00348,0.00396,32.9,34.4,22,753,.,.,9.36,0.00,0.00
15min,AgWx,beryljct,423,27FEB2020:13:00:00,50.6,14.04,45.7,46.8,45.9,46.9,44.8,43,46,40,0.504,24.9,27.4,23.0,5.48,3.5,24,28,6.5,0.00356,0.00408,32.9,34.4,22,754,.,.,9.36,0.00,0.00
15min,AgWx,beryljct,423,27FEB2020:13:15:00,51.5,13.98,46.2,47.1,46.9,47.9,46.2,42,45,39,0.456,24.8,26.5,23.2,6.379,4.9,26,17,6.9,0.00361,0.00424,32.9,34.3,22,750,.,.,9.35,0.00,0.00
15min,AgWx,beryljct,423,27FEB2020:13:30:00,52.2,13.99,48.8,48.3,47.5,48.6,46.7,44,47,39,0.471,26.6,28.7,24.1,5.722,5.3,0.7,20,8.4,0.00359,0.00423,32.9,34.3,21,742,.,.,9.35,0.00,0.00
15min,AgWx,beryljct,423,27FEB2020:13:45:00,52.9,13.97,49.6,48.9,48.4,48.9,48.0,45,49,40,0.532,27.8,30.4,25.4,3.705,6.0,344,19,7.9,0.00358,0.00428,33.0,34.3,22,730,.,.,9.35,0.00,0.00
15min,AgWx,beryljct,423,27FEB2020:14:00:00,53.5,13.97,47.9,48.5,48.7,49.5,48.3,41,45,38,0.465,26.3,29.0,24.2,3.99,5.3,353,15,8.5,0.00355,0.00422,33.2,34.3,21,714,.,.,9.35,0.00,0.00
15min,AgWx,beryljct,423,27FEB2020:14:15:00,54.1,13.95,48.4,49.3,48.9,49.6,48.3,41,44,39,0.507,26.6,28.8,24.7,9.49,6.0,345,13,9.9,0.00348,0.00419,33.4,34.3,22,694,.,.,9.35,0.00,0.00
15min,AgWx,beryljct,423,27FEB2020:14:30:00,54.7,14.01,50.8,49.7,49.7,50.4,48.8,40,43,37,0.469,26.4,28.5,24.2,3.902,6.0,354,21,9.5,0.00342,0.00416,33.8,34.3,21,670,.,.,9.35,0.00,0.00
15min,AgWx,beryljct,423,27FEB2020:14:45:00,55.2,13.9,51.1,51.2,50.7,51.5,49.9,38,42,35,0.449,26.1,28.4,24.0,5.393,6.0,5.5,19,10.2,0.00325,0.00400,34.2,34.3,21,617,.,.,9.35,0.00,0.00
15min,AgWx,beryljct,423,27FEB2020:15:00:00,56.0,13.88,51.2,51.9,51.8,52.3,51.2,34,38,32,0.425,24.4,27.2,22.4,10.81,6.5,27,19,12.7,0.00332,0.00416,34.6,34.3,22,609,.,.,9.34,0.00,0.00
15min,AgWx,beryljct,423,27FEB2020:15:15:00,56.6,13.85,52.5,52.7,52.4,53.4,51.6,33,36,30,0.426,24.1,26.8,22.0,5.502,8.4,30,14,12.6,0.00332,0.00433,35.0,34.3,21,579,.,.,9.34,0.00,0.00
15min,AgWx,beryljct,423,27FEB2020:15:30:00,57.1,13.85,52.8,52.4,53.0,53.5,52.4,32,34,30,0.410,24.0,25.9,22.3,6.423,8.7,44,14,14.3,0.00316,0.00419,35.4,34.4,22,534,.,.,9.34,0.00,0.00
15min,AgWx,beryljct,423,27FEB2020:15:45:00,57.3,13.85,54.0,53.6,53.2,53.9,52.4,32,34,29,0.444,23.7,26.3,21.5,9.67,8.5,43,14,13.2,0.00302,0.00404,35.8,34.4,21,503,.,.,9.33,0.00,0.00
15min,AgWx,beryljct,423,27FEB2020:16:00:00,57.5,13.85,52.7,53.3,53.3,53.8,52.9,31,32,29,0.424,23.2,24.7,21.9,11.16,9.2,39,12,12.1,0.00289,0.00397,36.2,34.4,21,462,.,.,9.33,0.00,0.00
15min,AgWx,beryljct,423,27FEB2020:16:15:00,57.4,13.84,53.7,53.1,53.2,53.4,53.0,32,33,30,0.433,23.9,25.4,22.4,9.05,9.2,34,15,11.9,0.00267,0.00372,36.6,34.4,21,417,.,.,9.33,0.00,0.00
15min,AgWx,beryljct,423,27FEB2020:16:30:00,57.2,13.84,53.5,52.6,53.1,53.5,52.6,33,35,30,0.451,24.6,26.5,22.2,9.62,9.0,35,11,11.5,0.00241,0.00342,36.9,34.5,21,370,.,.,9.33,0.00,0.00
15min,AgWx,beryljct,423,27FEB2020:16:45:00,56.9,13.83,52.5,52.4,52.6,53.0,52.3,34,37,32,0.452,25.2,26.9,24.0,8.02,9.2,33,12,11.3,0.00217,0.00315,37.1,34.5,22,322,.,.,9.33,0.00,0.00
15min,AgWx,beryljct,423,27FEB2020:17:00:00,56.3,13.89,51.7,51.8,52.2,52.4,51.8,36,38,34,0.466,26.1,27.6,24.8,7.87,9.3,33,10,12.4,0.00191,0.00285,37.4,34.6,22,274,.,.,9.33,0.00,0.00
15min,AgWx,beryljct,423,27FEB2020:17:15:00,55.6,13.86,51.1,51.2,51.6,51.9,51.2,38,40,35,0.500,26.9,28.3,25.2,9.78,8.8,26,8.1,11.3,0.00160,0.00245,37.6,34.7,22,225,.,.,9.33,0.00,0.00
15min,AgWx,beryljct,423,27FEB2020:17:30:00,54.7,13.95,50.5,50.4,50.8,51.2,50.4,40,42,39,0.512,27.5,28.2,26.7,10.61,8.7,24,8.0,12.0,0.00068,0.00082,37.8,34.7,22,178,.,.,9.34,0.00,0.00
15min,AgWx,beryljct,423,27FEB2020:17:45:00,53.6,13.94,48.9,49.1,49.8,50.4,49.1,43,45,40,0.528,28.0,28.5,27.1,6.05,7.7,26,6.7,10.7,0.00055,0.00068,37.9,34.8,21,132,.,.,9.33,0.00,0.00
15min,AgWx,beryljct,423,27FEB2020:18:00:00,52.1,13.97,47.5,47.6,48.4,49.1,47.6,46,47,44,0.528,28.5,28.9,28.0,5.875,6.2,26,6.0,8.0,0.00039,0.00051,38.0,34.9,22,89,.,.,9.33,0.00,0.00
15min,AgWx,beryljct,423,27FEB2020:18:15:00,50.2,13.17,47.2,47.2,47.5,47.8,47.2,47,48,46,0.518,28.3,28.6,27.9,4.56,4.2,19,9.1,5.4,0.00018,0.00026,38.1,35.0,22,30,.,.,9.34,0.01,0.00
15min,AgWx,beryljct,423,27FEB2020:18:30:00,48.0,13.11,45.2,44.8,45.6,47.2,43.3,50,56,46,0.524,28.0,28.8,27.5,2.916,3.3,345,22,4.8,0.00006,0.00011,38.1,35.0,22,6,.,.,9.34,0.00,0.00
15min,AgWx,beryljct,423,27FEB2020:18:45:00,45.8,13.07,43.7,43.8,45.0,45.6,43.4,51,53,49,0.508,27.7,28.3,27.0,4.231,3.5,320,3.4,4.5,0.00005,0.00010,38.2,35.1,21,1,.,.,9.35,0.01,0.00
15min,AgWx,beryljct,423,27FEB2020:19:00:00,43.5,13.06,42.3,42.8,41.6,44.5,39.5,57,61,51,0.497,27.4,28.1,26.8,4.801,4.3,320,9.4,5.2,0.00006,0.00010,38.1,35.2,21,0,.,.,9.35,0.00,0.00
15min,AgWx,beryljct,423,27FEB2020:19:15:00,41.6,13.04,40.9,39.9,40.8,42.8,38.8,57,61,53,0.481,26.7,27.3,26.0,3.902,4.2,312,5.5,5.3,0.00006,0.00010,38.1,35.3,21,0,.,.,9.35,0.00,0.00
15min,AgWx,beryljct,423,27FEB2020:19:30:00,39.9,13.02,40.9,40.2,39.3,40.2,38.7,59,60,57,0.482,26.2,26.7,25.9,5.042,4.0,315,10,5.1,0.00003,0.00006,38.0,35.4,21,0,.,.,9.35,0.00,0.00
15min,AgWx,beryljct,423,27FEB2020:19:45:00,38.9,13,39.3,39.1,40.0,41.0,38.9,57,59,55,0.479,26.0,26.3,25.6,4.647,4.7,302,4.5,5.5,0.00008,0.00012,37.9,35.5,22,0,.,.,9.35,0.00,0.00
15min,AgWx,beryljct,423,27FEB2020:20:00:00,38.0,13,41.9,39.5,39.1,40.6,37.3,59,62,56,0.468,25.8,26.3,25.2,2.653,2.6,299,9.6,4.4,-0.00004,-0.00003,37.8,35.6,21,0,.,.,9.35,0.00,0.00
15min,AgWx,beryljct,423,27FEB2020:20:15:00,37.3,12.99,40.8,39.0,40.3,41.1,39.0,54,57,52,0.458,25.1,25.9,24.6,3.727,3.1,307,9.9,4.0,-0.00000,0.00003,37.6,35.6,21,0,.,.,9.35,0.00,0.00
15min,AgWx,beryljct,423,27FEB2020:20:30:00,37.0,12.97,41.1,40.9,39.3,40.9,37.8,56,60,52,0.454,25.1,25.8,24.2,3.376,3.8,345,14,5.9,0.00004,0.00007,37.5,35.7,21,0,.,.,9.36,0.00,0.00
15min,AgWx,beryljct,423,27FEB2020:20:45:00,36.7,12.97,40.5,38.7,38.3,40.8,36.4,57,62,52,0.459,24.5,25.1,23.6,3.858,3.1,324,17,4.1,-0.00001,0.00001,37.3,35.7,21,0,.,.,9.36,0.00,0.00
15min,AgWx,beryljct,423,27FEB2020:21:00:00,36.4,12.96,39.8,39.0,39.3,39.9,38.8,54,57,53,0.443,24.3,25.0,23.9,3.398,3.8,300,6.7,4.5,0.00004,0.00008,37.2,35.8,21,0,.,.,9.36,0.00,0.00
15min,AgWx,beryljct,423,27FEB2020:21:15:00,36.4,12.95,37.9,40.3,39.8,40.4,39.1,52,55,50,0.428,23.7,24.2,23.3,2.784,3.4,318,16,4.6,0.00003,0.00007,37.1,35.8,22,0,.,.,9.36,0.00,0.00
15min,AgWx,beryljct,423,27FEB2020:21:30:00,36.3,12.94,38.4,36.4,38.3,40.2,36.3,55,60,50,0.434,23.4,23.8,23.0,3.573,3.6,329,6.7,4.6,0.00003,0.00006,37.0,35.9,21,0,.,.,9.36,0.00,0.00
15min,AgWx,beryljct,423,27FEB2020:21:45:00,35.8,12.94,37.9,38.1,37.4,38.2,36.1,57,60,55,0.428,23.6,24.0,23.2,3.836,3.3,320,12,4.3,0.00000,0.00003,36.8,35.9,21,0,.,.,9.36,0.00,0.00
15min,AgWx,beryljct,423,27FEB2020:22:00:00,35.5,12.92,38.3,37.9,37.4,38.1,36.6,57,59,55,0.428,23.5,24.0,23.2,5.02,3.8,321,19,6.6,0.00003,0.00006,36.7,35.9,21,0,.,.,9.36,0.00,0.00
15min,AgWx,beryljct,423,27FEB2020:22:15:00,35.2,12.91,35.9,35.8,36.3,37.9,35.3,59,61,55,0.432,23.3,23.7,22.9,3.464,4.1,308,15,5.6,0.00004,0.00007,36.6,36.0,21,0,.,.,9.36,0.00,0.00
15min,AgWx,beryljct,423,27FEB2020:22:30:00,34.7,12.9,36.1,35.5,36.1,36.7,34.4,59,62,57,0.429,23.1,23.6,21.6,0,2.7,304,57,4.2,-0.00004,-0.00003,36.5,36.0,21,0,.,.,9.36,0.00,0.00
15min,AgWx,beryljct,423,27FEB2020:22:45:00,34.1,12.9,37.6,36.5,35.2,36.5,33.5,61,65,58,0.430,23.1,23.8,22.4,3.793,2.7,32,26,4.4,-0.00005,-0.00004,36.4,36.0,22,0,.,.,9.36,0.00,0.00
15min,AgWx,beryljct,423,27FEB2020:23:00:00,33.8,12.89,29.2,29.7,34.5,36.7,29.7,62,75,58,0.418,22.8,23.5,21.1,2.17,3.5,352,17,4.8,-0.00000,0.00002,36.3,36.0,21,0,.,.,9.36,0.01,0.00
15min,AgWx,beryljct,423,27FEB2020:23:15:00,32.8,12.88,30.8,29.6,28.9,29.6,28.5,79,80,75,0.434,23.2,23.7,22.7,1.841,1.5,303,13,2.5,-0.00013,-0.00017,36.2,36.0,21,0,.,.,9.37,0.00,0.00
15min,AgWx,beryljct,423,27FEB2020:23:30:00,31.6,12.87,30.0,29.0,29.6,30.6,28.9,77,79,74,0.419,23.2,24.5,22.6,5.261,3.5,329,9.9,5.3,-0.00005,-0.00005,36.1,36.0,22,0,.,.,9.36,0.00,0.00
15min,AgWx,bigpiney,439,27FEB2020:00:00:00,14.9,12.64,25.9,21.9,18.8,21.9,15.9,67,72,64,0.268,9.8,12.5,6.8,13.68,5.4,273,24,14.1,0.00002,0.00003,28.9,30.1,11,0,0,0.0,5.83,0.00,0.00
15min,AgWx,bigpiney,439,27FEB2020:00:15:00,16.0,12.63,24.6,25.3,25.2,26.2,22.4,59,67,57,0.269,13.0,13.7,12.5,9.45,11.8,288,11,15.1,0.00014,0.00016,28.9,30.1,11,0,0,0.0,5.83,0.00,0.00
15min,AgWx,bigpiney,439,27FEB2020:00:30:00,16.8,12.62,15.3,14.8,14.5,25.1,10.6,69,77,53,0.209,6.0,12.4,1.1,3.771,5.1,45,20,10.1,0.00001,0.00002,28.9,30.1,11,0,0,0.0,5.83,0.00,0.00
15min,AgWx,bigpiney,439,27FEB2020:00:45:00,16.3,12.61,10.5,10.8,14.0,15.2,10.8,72,74,70,0.179,6.7,8.3,3.5,4.45,2.8,36,59,7.9,-0.00004,-0.00004,28.9,30.1,11,0,0,0.0,5.83,0.00,0.00
15min,AgWx,bigpiney,439,27FEB2020:01:00:00,15.4,12.6,14.5,14.4,14.1,15.9,10.6,74,78,70,0.216,7.2,9.1,3.5,6.204,4.4,93,43,7.6,-0.00001,-0.00001,28.9,30.1,11,0,0,0.0,5.83,0.00,0.00
15min,AgWx,bigpiney,439,27FEB2020:01:15:00,14.7,12.58,15.7,14.3,14.0,15.3,12.8,73,75,72,0.211,7.0,8.8,5.3,2.762,4.7,121,20,9.1,-0.00001,-0.00000,28.9,30.1,11,0,0,0.0,5.83,0.00,0.00
15min,AgWx,bigpiney,439,27FEB2020:01:30:00,14.2,12.59,19.6,19.1,16.1,19.1,14.3,71,73,68,0.243,8.4,10.5,7.0,7.453,4.9,80,17,7.5,-0.00000,0.00001,29.0,30.1,11,0,0,0.0,5.83,0.00,0.00
15min,AgWx,bigpiney,439,27FEB2020:01:45:00,14.1,12.57,19.3,19.6,19.4,20.5,18.3,67,69,65,0.236,10.2,11.6,8.9,0.175,3.4,64,31,7.9,-0.00002,-0.00001,29.0,30.1,11,0,0,0.0,5.83,0.00,0.00
15min,AgWx,bigpiney,439,27FEB2020:02:00:00,14.3,12.56,18.9,22.5,20.8,22.6,19.4,66,68,62,0.261,11.1,12.8,9.4,4.187,2.4,327,55,5.7,-0.00006,-0.00006,29.0,30.1,11,0,0,0.0,5.83,0.00,0.00
15min,AgWx,bigpiney,439,27FEB2020:02:15:00,14.7,12.55,20.8,20.2,20.8,22.1,20.2,64,65,61,0.237,10.5,11.2,9.7,4.867,3.9,326,19,5.8,-0.00000,0.00001,29.0,30.0,11,0,0,0.0,5.83,0.00,0.00
15min,AgWx,bigpiney,439,27FEB2020:02:30:00,15.1,12.55,21.6,20.9,20.0,21.4,18.2,65,68,62,0.249,10.1,11.1,7.7,4.823,4.2,298,27,6.3,0.00000,0.00001,29.0,30.1,11,0,0,0.0,5.83,0.00,0.00
15min,AgWx,bigpiney,439,27FEB2020:02:45:00,15.3,12.54,15.2,15.3,20.8,23.2,15.3,63,65,60,0.194,10.0,12.2,5.3,0,3.6,339,56,6.4,-0.00001,0.00001,29.0,30.1,11,0,0,0.0,5.83,0.00,0.00
15min,AgWx,bigpiney,439,27FEB2020:03:00:00,15.3,12.53,15.4,16.6,16.7,17.8,15.2,70,72,64,0.220,8.5,10.4,5.3,4.516,3.4,334,54,10.2,-0.00003,-0.00002,29.0,30.2,11,0,0,0.0,5.83,0.00,0.00
15min,AgWx,bigpiney,439,27FEB2020:03:15:00,14.8,12.52,13.3,12.7,13.5,22.6,11.8,73,76,68,0.206,6.4,15.4,5.2,3.025,2.3,16,30,3.7,-0.00005,-0.00006,29.0,30.1,11,0,0,0.0,5.83,0.00,0.00
15min,AgWx,bigpiney,439,27FEB2020:03:30:00,14.0,12.52,17.8,17.5,15.3,17.6,12.2,74,78,71,0.238,8.6,10.2,5.8,5.963,4.5,35,12,6.4,-0.00002,-0.00001,29.0,30.1,11,0,0,0.0,5.83,0.00,0.00
15min,AgWx,bigpiney,439,27FEB2020:03:45:00,13.6,12.51,20.3,19.5,18.8,19.5,17.5,71,72,70,0.255,10.8,11.3,9.7,3.069,5.1,51,6.3,7.0,0.00000,0.00001,29.0,30.1,11,0,0,0.0,5.83,0.00,0.00
15min,AgWx,bigpiney,439,27FEB2020:04:00:00,13.7,12.5,21.6,20.6,20.1,20.6,19.5,67,70,65,0.253,11.1,11.6,10.4,6.226,3.9,340,54,7.6,-0.00001,-0.00001,29.0,30.1,11,0,0,0.0,5.83,0.00,0.00
15min,AgWx,bigpiney,439,27FEB2020:04:15:00,14.0,12.5,18.2,15.7,19.2,20.9,14.5,66,72,63,0.222,9.7,11.5,5.8,5.48,4.5,321,70,7.8,0.00001,0.00002,29.0,30.2,11,0,0,0.0,5.83,0.00,0.00
15min,AgWx,bigpiney,439,27FEB2020:04:30:00,14.1,12.49,20.7,20.4,19.0,21.1,16.1,70,74,65,0.247,10.7,11.9,8.9,3.025,3.9,64,22,5.8,-0.00001,-0.00001,29.0,30.1,11,0,0,0.0,5.83,0.00,0.00
15min,AgWx,bigpiney,439,27FEB2020:04:45:00,14.2,12.49,17.2,17.9,19.2,20.3,17.8,68,72,66,0.231,10.4,11.6,9.2,6.401,4.9,84,12,7.2,0.00001,0.00002,29.0,30.2,11,0,0,0.0,5.83,0.00,0.00
15min,AgWx,bigpiney,439,27FEB2020:05:00:00,14.4,12.49,18.3,17.6,18.0,19.5,15.6,70,73,67,0.239,9.8,11.4,7.1,5.765,5.5,58,8.7,9.8,0.00001,0.00002,29.0,30.1,11,0,0,0.0,5.83,0.00,0.00
15min,AgWx,bigpiney,439,27FEB2020:05:15:00,14.3,12.48,17.7,17.4,16.5,18.0,14.4,72,76,70,0.243,9.2,10.4,6.6,2.543,3.4,153,82,6.9,-0.00003,-0.00003,29.0,30.1,11,0,0,0.0,5.83,0.00,0.00
15min,AgWx,bigpiney,439,27FEB2020:05:30:00,14.0,12.47,9.9,13.7,16.9,17.9,13.7,73,75,71,0.199,9.7,10.6,5.9,6.664,4.2,146,43,8.9,-0.00002,-0.00001,29.0,30.1,11,0,0,0.0,5.83,0.00,0.00
15min,AgWx,bigpiney,439,27FEB2020:05:45:00,13.7,12.48,18.8,16.4,14.3,17.3,9.3,75,83,68,0.256,7.7,11.4,1.6,6.314,5.8,196,21,8.4,0.00000,0.00001,29.0,30.2,11,0,0,0.0,5.83,0.00,0.00
15min,AgWx,bigpiney,439,27FEB2020:06:00:00,13.1,12.47,18.3,13.9,13.6,17.9,11.4,75,80,69,0.223,7.0,11.6,3.7,6.62,6.4,183,21,10.0,0.00001,0.00002,29.0,30.1,11,0,0,0.0,5.83,0.00,0.00
15min,AgWx,bigpiney,439,27FEB2020:06:15:00,12.4,12.46,16.9,15.4,13.4,15.6,11.3,75,79,72,0.227,7.0,10.0,4.6,0.658,3.2,135,43,9.0,-0.00004,-0.00004,29.0,30.1,11,0,0,0.0,5.83,0.00,0.00
15min,AgWx,bigpiney,439,27FEB2020:06:30:00,12.0,12.46,16.5,19.0,17.0,21.8,13.1,70,75,56,0.198,8.9,12.1,4.3,14.42,5.6,127,86,18.2,0.00001,0.00002,28.9,30.2,11,0,0,0.0,5.83,0.00,0.00
15min,AgWx,bigpiney,439,27FEB2020:06:45:00,12.0,12.46,12.9,11.7,13.6,18.4,9.9,68,75,56,0.193,4.8,8.5,2.2,7.147,6.9,225,27,13.7,0.00003,0.00005,28.9,30.1,11,0,0,0.0,5.83,0.00,0.00
15min,AgWx,bigpiney,439,27FEB2020:07:00:00,11.6,12.49,11.5,11.2,9.9,12.0,8.5,75,80,70,0.199,3.6,6.1,1.0,8.46,7.2,207,16,11.7,0.00001,0.00002,28.9,30.2,11,3,0,0.0,5.83,0.00,0.00
15min,AgWx,bigpiney,439,27FEB2020:07:15:00,10.9,12.91,10.6,8.6,11.1,12.8,8.4,77,79,72,0.171,5.2,7.3,2.1,9.01,8.0,215,10,10.2,0.00003,0.00003,28.9,30.2,11,24,0,0.0,5.83,0.00,0.00
15min,AgWx,bigpiney,439,27FEB2020:07:30:00,10.4,15.03,9.7,9.0,9.8,11.0,8.3,78,81,75,0.178,4.3,6.1,2.2,7.322,7.4,211,8.8,8.7,0.00004,0.00011,28.9,30.1,11,57,0,0.0,5.83,0.00,0.00
15min,AgWx,bigpiney,439,27FEB2020:07:45:00,10.3,15.05,14.5,12.8,12.2,15.8,7.1,76,83,71,0.205,6.1,9.3,1.0,2.521,5.5,190,23,8.2,0.00011,0.00019,28.9,30.1,11,101,0,0.0,5.83,0.00,0.00
15min,AgWx,bigpiney,439,27FEB2020:08:00:00,11.2,15.08,16.7,15.0,13.6,16.4,8.2,75,80,70,0.221,7.0,9.7,0.6,5.13,3.7,217,42,7.7,0.00018,0.00025,28.9,30.1,11,138,0,0.0,5.83,0.00,0.00
15min,AgWx,bigpiney,439,27FEB2020:08:15:00,12.5,14.98,10.5,9.5,12.3,16.1,7.7,74,80,70,0.177,5.4,8.9,1.1,2.828,3.7,198,39,6.1,0.00028,0.00036,28.9,30.2,11,183,0,0.0,5.83,0.00,0.00
15min,AgWx,bigpiney,439,27FEB2020:08:30:00,13.7,15,11.6,10.6,9.8,11.1,7.2,77,80,74,0.192,4.0,5.7,1.0,3.42,2.9,280,76,6.5,0.00035,0.00041,28.9,30.1,11,230,0,0.0,5.83,0.00,0.00
15min,AgWx,bigpiney,439,27FEB2020:08:45:00,15.1,15,13.5,13.2,11.4,13.3,7.8,77,79,73,0.211,5.5,7.7,1.1,1.271,1.8,255,76,4.5,0.00049,0.00055,28.9,30.2,11,276,0,0.0,5.83,0.00,0.00
15min,AgWx,bigpiney,439,27FEB2020:09:00:00,16.8,14.65,16.2,15.6,12.3,15.6,9.5,75,79,72,0.224,6.0,8.5,2.8,3.091,2.3,214,31,4.4,0.00062,0.00069,28.9,30.2,11,324,0,0.0,5.83,0.00,0.00